Temperature
31 32 32 32 32 33 32 32 31 31 31 31 31 31 31 30 30 29 28 27 27 26 25 25 24 24 23 23 22 22 21 21 20 20 20 19 19 19 19 18 18 18 17 17
29 31 31 32 32 32 32 32 32 31 31 31 31 31 30 29 29 28 27 27 26 26 25 24 24 23 23 23 22 22 21 21 21 20 20 19 19 19 18 18 18 17 17 17
28 30 30 30 31 31 32 32 32 30 30 31 30 30 29 28 28 27 27 26 25 25 24 24 23 23 23 22 22 22 21 21 21 20 20 19 19 19 18 18 18 17 17 17
28 28 27 29 31 31 31 31 31 30 30 30 29 28 28 27 27 26 26 25 25 24 24 23 23 23 22 22 22 21 21 21 20 20 19 19 19 18 18 18 18 17 17 17
27 27 28 29 30 30 30 29 30 30 29 29 29 28 27 26 25 25 25 24 24 24 24 23 23 22 22 21 21 21 21 20 20 19 19 19 18 18 18 18 17 17 16 16
26 26 26 28 30 30 30 28 28 28 28 28 28 28 27 25 24 24 24 23 23 23 23 23 22 22 21 21 21 21 20 20 20 19 19 19 18 18 18 17 17 16 16 16
26 26 26 28 29 29 27 26 27 27 26 26 26 25 24 24 23 23 23 23 23 23 22 22 22 21 21 20 20 20 20 20 19 19 19 18 18 18 17 17 16 16 16 15
25 25 25 27 27 26 25 25 25 25 25 24 24 24 24 23 22 22 22 22 22 22 21 21 21 21 20 20 20 19 19 19 19 18 18 17 17 17 17 16 16 16 15 15
25 25 25 25 25 24 24 24 24 24 24 23 23 23 23 22 22 21 21 21 21 21 21 20 20 20 20 20 19 19 18 18 18 18 17 17 17 17 16 16 15 15 15 15
24 24 24 24 24 23 23 23 23 23 23 23 22 22 22 21 21 21 21 20 20 20 20 19 19 19 19 19 19 18 18 18 17 17 17 16 16 16 16 15 15 15 15 14
23 23 23 23 23 23 22 22 22 22 22 22 22 21 21 20 20 20 20 20 19 19 19 19 19 18 18 18 18 17 17 17 17 16 16 16 16 16 15 15 15 15 15 14
22 22 22 22 21 22 21 21 21 21 21 21 21 20 20 20 19 19 19 19 19 19 18 18 18 18 18 17 17 17 16 16 16 16 16 15 15 15 15 15 15 15 14 14
20 20 20 20 20 21 21 21 20 20 20 20 20 19 19 19 19 19 18 18 18 18 18 18 17 17 17 17 16 16 16 16 15 15 15 15 15 15 15 14 14 14 14 14
19 19 19 19 19 20 20 20 20 19 19 19 19 18 18 18 18 18 18 17 17 17 17 17 17 16 16 16 16 16 16 15 15 15 15 14 14 14 14 14 14 14 14 13
18 18 18 18 18 19 19 19 19 19 18 18 18 18 17 17 17 17 17 17 16 16 16 16 16 16 16 16 15 15 15 15 14 14 14 14 14 14 14 14 14 13 13 13
18 18 18 18 18 18 18 18 18 18 17 17 17 17 17 16 16 16 16 16 16 16 15 15 15 15 15 15 15 15 15 14 14 14 14 14 14 14 14 13 13 13 13 12
17 17 17 17 17 17 17 17 17 17 17 16 16 16 16 16 16 16 16 15 15 15 15 15 15 15 15 15 15 14 14 14 14 14 14 14 14 14 13 13 13 13 12 12
17 16 16 16 16 16 16 16 16 16 16 16 16 15 15 15 15 15 15 15 15 15 14 14 14 14 14 14 14 14 14 14 14 14 14 14 13 13 13 13 13 12 12 12
16 16 16 16 16 16 16 15 15 15 15 15 15 15 15 15 15 15 15 14 14 14 14 14 14 14 14 14 14 14 14 13 13 13 13 13 13 13 13 13 12 12 12 12
15 15 15 15 15 15 15 15 15 15 14 14 14 14 14 14 14 14 14 14 14 14 14 14 14 14 14 14 14 14 14 13 13 13 13 13 13 13 13 12 12 12 12 12
15 15 15 15 15 15 14 14 14 14 14 14 14 14 14 14 14 14 14 14 14 14 14 14 14 13 13 14 14 13 14 14 13 13 13 13 13 13 13 12 12 12 12 12
14 14 14 14 14 14 14 14 14 14 14 13 13 13 13 13 13 13 13 13 13 14 14 14 13 13 13 13 13 13 13 13 13 13 13 13 13 13 12 12 12 12 12 11
13 13 13 13 13 13 13 13 13 13 13 13 13 13 13 13 13 13 13 13 13 13 13 13 13 13 13 13 13 13 13 13 13 13 13 12 12 12 12 12 12 12 11 11
12 12 12 12 12 12 12 12 13 13 13 13 13 13 13 13 13 13 13 13 13 13 13 13 13 13 13 13 13 13 13 13 13 12 12 12 12 12 12 12 12 11 11 11
12 12 12 12 12 12 12 12 12 13 13 13 13 13 13 13 13 13 13 13 13 13 13 13 13 13 12 12 12 12 12 12 12 12 12 12 12 12 12 12 11 11 11 11
12 12 12 12 12 12 12 12 12 12 12 13 13 13 13 13 13 13 13 13 13 13 13 13 12 12 12 12 12 12 12 12 12 12 12 12 12 11 11 11 11 11 11 11
12 12 12 12 12 12 12 12 12 12 12 12 12 12 13 13 13 13 13 13 12 12 12 12 12 12 12 12 12 12 12 12 12 11 11 11 11 11 11 11 11 10 10 10
Wind_Speed
16 14 11 12 13 15 15 13 9 6 4 3 2 2 5 6 7 8 7 7 7 8 7 7 8 9 9 9 8 9 9 9 8 6 6 5 4 3 3 2 3 3 2 2
14 14 14 14 14 14 13 12 11 9 5 3 3 3 4 5 6 5 5 5 6 6 8 7 7 7 8 8 8 7 8 8 7 7 6 5 5 4 3 3 2 2 2 2
12 13 14 15 13 12 12 10 9 7 4 2 2 5 5 6 5 3 3 3 3 4 6 6 7 7 8 8 8 8 7 7 8 7 7 6 6 5 4 3 3 2 2 3
11 12 14 10 7 10 10 7 3 3 2 1 4 6 6 6 4 3 2 2 2 3 5 6 8 8 6 7 8 8 8 8 8 8 7 6 5 5 4 3 3 3 2 3
10 13 12 10 8 8 7 2 4 3 3 3 3 4 5 5 5 4 3 3 1 1 4 5 6 7 7 7 7 7 8 7 7 7 7 7 6 5 4 4 3 3 3 3
10 11 11 5 5 7 8 5 4 5 5 5 3 1 1 5 4 3 3 2 2 1 2 4 5 6 7 7 7 7 7 7 7 7 7 6 6 5 5 4 4 4 4 4
13 11 8 5 5 5 6 1 5 6 6 6 4 3 3 4 4 3 3 3 2 1 1 3 5 6 6 6 6 5 5 6 7 6 6 6 5 5 5 5 4 4 4 4
11 12 7 5 4 3 3 5 5 6 6 6 5 4 4 4 4 4 4 4 3 2 2 3 4 6 5 5 4 4 5 6 6 6 6 6 6 5 5 5 5 5 4 4
3 2 3 5 4 5 5 5 5 5 5 5 5 4 4 3 3 3 3 2 2 2 2 2 3 4 5 4 4 5 5 5 5 5 4 5 6 6 5 5 5 5 5 5
3 1 2 4 4 4 4 5 5 5 4 4 4 4 3 3 3 2 2 1 1 1 1 2 3 3 3 4 5 5 5 5 5 4 4 4 4 4 4 5 5 5 4 4
4 2 3 3 5 5 5 6 6 6 5 4 4 4 3 2 2 2 1 1 1 1 1 2 2 3 3 4 5 5 5 5 5 5 5 4 3 2 3 2 3 3 3 3
3 4 4 4 5 5 4 4 4 5 5 4 4 5 4 3 2 1 0 1 1 1 1 2 3 3 3 3 4 5 5 5 5 5 5 5 5 2 4 2 4 4 3 3
5 6 5 6 8 6 4 4 4 5 5 5 5 4 3 2 2 0 1 1 1 2 2 2 3 3 3 4 4 4 4 4 4 4 5 6 6 5 4 1 3 3 3 5
6 7 6 7 8 7 5 4 5 5 4 4 4 4 3 2 2 1 1 1 2 2 2 2 2 2 3 3 3 3 3 3 4 4 4 5 5 5 5 5 4 2 2 4
6 6 7 7 7 7 5 4 4 4 5 5 4 3 3 2 2 1 1 2 2 2 2 2 2 2 2 3 4 3 3 3 3 3 4 4 4 5 5 5 5 4 4 3
7 7 8 8 8 7 7 6 5 5 6 5 5 3 3 2 1 0 1 2 2 1 2 2 2 2 2 3 4 3 3 4 5 4 4 4 4 5 4 4 4 4 5 5
7 7 8 8 8 8 8 7 6 6 6 5 4 4 3 1 1 1 1 1 1 2 2 2 2 3 2 3 3 2 2 3 5 4 4 4 4 4 4 4 4 4 4 5
7 7 8 9 8 8 7 6 5 5 4 4 3 2 2 1 1 1 1 1 1 1 1 3 3 3 3 2 1 2 2 3 3 2 2 1 2 2 2 3 3 4 3 5
6 6 7 7 6 5 4 4 4 4 3 2 2 1 1 0 1 1 2 1 1 1 2 3 5 4 3 3 2 2 3 3 3 3 2 2 2 2 3 3 4 4 4 4
6 7 6 6 5 4 3 3 4 4 3 3 2 1 0 1 0 1 1 1 2 2 2 3 3 2 2 3 3 3 3 3 3 3 3 3 3 4 4 4 4 3 3 4
7 7 7 5 4 4 4 4 4 3 3 3 2 1 1 0 0 0 1 1 0 2 3 4 3 2 2 2 3 3 3 3 3 3 4 4 3 3 3 3 3 3 3 3
7 6 5 5 5 5 4 4 4 4 3 3 3 2 1 1 1 1 1 1 1 1 2 2 1 1 0 1 2 3 2 2 2 2 2 3 3 3 3 3 3 3 3 3
5 5 5 5 5 4 4 4 4 4 3 3 3 3 3 2 2 2 2 1 1 1 1 1 1 2 0 2 2 2 2 2 2 2 2 3 3 3 2 3 3 3 3 3
4 4 4 4 4 4 4 4 4 3 3 2 3 2 2 2 2 3 2 1 2 3 1 1 3 2 2 2 2 2 2 2 2 3 3 3 3 3 3 3 2 2 2 3
3 3 3 3 4 3 3 3 3 3 3 2 2 2 2 2 2 1 1 1 4 4 2 3 4 3 3 2 2 2 2 2 3 3 2 3 3 2 2 2 2 3 3 3
2 2 3 3 3 3 3 3 3 2 2 2 1 1 2 1 2 2 2 2 2 2 2 1 2 3 3 3 3 3 2 1 2 2 2 2 3 2 2 2 3 3 3 3
2 2 2 2 2 3 3 2 2 2 1 2 2 2 2 1 0 1 1 1 1 1 1 1 2 2 2 2 2 2 2 2 2 2 2 2 2 2 2 2 2 2 2 3
Wind_Direction
263 269 256 245 242 242 247 257 258 257 219 209 207 128 110 121 135 130 135 146 159 156 147 148 153 161 164 166 165 165 165 166 164 162 155 151 148 144 140 143 138 133 137 139
258 264 266 256 245 251 249 251 250 251 256 208 179 124 102 99 105 121 145 155 153 151 150 154 159 166 166 164 162 159 164 163 156 156 157 157 157 154 143 135 122 124 122 98
254 253 259 254 253 256 257 254 253 254 262 207 147 104 107 98 98 101 103 131 146 159 158 164 167 168 169 168 164 165 165 163 161 165 165 167 167 155 147 141 127 121 116 102
255 254 250 252 269 270 263 258 289 288 299 352 86 94 92 86 76 63 52 44 142 168 169 173 167 164 164 169 169 170 171 170 169 171 169 165 163 162 157 152 144 131 125 115
253 249 246 249 249 255 255 273 353 353 357 8 58 103 101 75 68 56 47 26 21 172 172 164 163 162 162 170 172 173 174 172 170 170 170 172 171 168 161 156 147 149 147 133
250 255 251 253 264 264 251 230 1 359 11 13 10 266 81 45 50 40 34 32 29 49 140 155 159 156 164 172 176 181 178 171 167 170 171 172 168 163 159 158 162 158 146 141
246 251 253 310 316 286 249 253 17 15 15 15 19 21 36 37 40 33 34 31 47 66 90 146 150 152 165 173 182 178 167 163 164 168 168 165 160 162 160 162 163 160 150 151
238 246 245 344 325 311 7 34 23 22 27 28 28 32 34 41 30 24 26 28 37 51 66 113 136 149 163 172 169 155 159 162 163 164 175 169 161 165 166 167 170 171 171 174
246 246 52 16 31 31 19 22 21 21 21 18 6 9 28 31 17 12 20 25 37 55 69 100 122 144 159 149 139 144 151 156 157 164 166 160 172 175 173 178 193 191 188 189
273 147 27 4 24 16 17 9 6 10 8 1 349 342 352 356 349 344 357 22 44 99 117 116 123 144 150 148 142 148 160 160 163 168 172 166 174 182 189 196 202 199 195 189
254 283 314 341 348 348 7 14 7 348 347 340 340 329 322 319 319 311 333 63 80 124 134 134 128 138 142 140 150 163 167 165 170 177 177 164 165 162 190 194 213 205 203 192
300 341 324 330 347 344 334 342 344 341 337 331 325 314 312 312 309 305 105 107 110 111 124 134 137 137 133 138 160 169 176 177 183 185 174 174 174 154 58 81 102 98 109 139
337 334 335 333 335 327 318 323 335 332 329 330 331 319 307 304 308 299 155 125 132 137 129 129 145 148 145 149 162 175 178 178 184 189 186 190 189 188 184 97 67 91 126 140
334 334 330 327 322 319 325 334 335 332 326 319 317 310 303 296 290 215 162 144 131 129 125 128 138 141 148 154 161 171 175 178 189 199 199 204 201 201 196 191 193 192 194 175
322 318 309 310 306 304 313 316 317 317 324 326 322 312 302 292 279 248 140 130 121 118 119 125 134 145 150 163 168 180 187 189 199 208 213 209 203 208 206 196 193 189 178 177
309 304 305 301 299 307 310 313 309 309 312 312 312 307 296 289 275 203 140 133 137 138 125 128 146 159 162 170 174 189 198 194 202 212 216 210 206 206 204 195 189 194 193 184
297 298 297 295 299 305 307 304 303 302 305 308 311 306 289 247 183 152 160 112 100 114 134 143 154 149 160 180 191 199 192 196 210 220 216 209 208 215 208 202 200 202 199 189
288 294 301 299 297 296 298 305 310 316 316 313 309 304 293 261 196 156 118 82 73 94 148 158 151 144 155 165 179 194 198 202 208 222 222 219 225 219 213 220 216 210 199 185
290 293 295 296 298 301 311 326 330 329 330 335 339 328 306 335 97 110 114 128 188 223 204 162 148 158 165 167 198 199 197 185 193 216 205 193 219 231 224 227 228 224 216 196
301 296 295 302 308 313 318 323 324 328 328 320 320 317 344 21 41 190 189 213 217 219 151 139 158 184 187 185 215 210 210 202 202 207 206 211 219 224 226 226 225 226 228 228
297 295 297 298 306 319 322 323 317 312 306 305 304 287 278 280 315 302 271 293 23 129 150 153 178 189 203 198 210 229 225 211 215 214 217 220 221 224 227 225 225 229 231 235
305 304 307 313 319 324 329 320 306 295 294 293 287 276 251 229 231 247 263 273 284 118 156 178 198 109 55 185 216 255 257 239 236 235 240 244 236 233 236 241 241 240 241 236
318 314 310 312 314 316 318 310 301 290 280 273 272 268 253 244 256 252 264 268 215 175 197 221 111 107 168 242 265 281 276 260 253 253 259 263 259 253 245 247 248 236 241 242
317 309 303 303 308 306 308 305 297 290 279 263 262 254 229 221 232 238 242 193 159 161 189 120 141 166 210 243 277 285 286 279 264 257 257 260 258 252 253 255 261 247 227 234
303 307 301 290 289 290 290 284 277 281 277 268 258 233 234 227 225 227 214 163 154 161 161 165 176 202 229 260 269 278 278 282 281 270 263 267 269 269 266 268 267 266 258 241
303 287 296 301 300 296 297 294 288 286 285 281 290 281 262 221 196 203 207 205 178 185 197 183 189 216 245 262 269 274 272 259 271 274 275 276 278 277 275 277 283 280 277 275
307 292 279 286 297 304 311 305 292 299 318 325 312 299 300 299 144 154 190 190 181 198 188 206 224 229 240 259 268 270 275 277 289 309 324 330 321 308 310 308 301 299 307 315
Height
1473 1468 1467 1469 1470 1470 1473 1475 1484 1484 1484 1482 1481 1481 1483 1486 1490 1493 1497 1500 1504 1506 1509 1512 1515 1518 1520 1523 1525 1527 1529 1530 1532 1533 1534 1535 1535 1535 1536 1536 1536 1536 1536 1536
1479 1471 1469 1470 1469 1469 1470 1471 1474 1478 1481 1477 1478 1481 1484 1488 1491 1495 1499 1501 1503 1505 1507 1510 1513 1516 1518 1521 1523 1525 1527 1529 1530 1531 1532 1533 1533 1534 1534 1535 1535 1535 1535 1535
1486 1476 1475 1480 1471 1469 1470 1467 1472 1480 1479 1476 1479 1481 1486 1489 1493 1496 1499 1500 1502 1504 1506 1508 1510 1513 1516 1518 1521 1523 1525 1527 1528 1529 1530 1531 1532 1532 1533 1533 1533 1533 1533 1533
1486 1486 1499 1479 1464 1465 1468 1468 1469 1473 1475 1477 1480 1484 1487 1490 1493 1496 1498 1500 1501 1503 1505 1506 1508 1511 1513 1516 1518 1520 1522 1524 1525 1527 1528 1529 1529 1530 1530 1531 1531 1531 1532 1532
1488 1490 1486 1474 1467 1468 1472 1475 1474 1476 1477 1478 1480 1484 1489 1491 1493 1496 1498 1500 1501 1502 1503 1505 1506 1508 1511 1513 1515 1517 1519 1521 1522 1524 1525 1526 1527 1527 1528 1528 1529 1529 1530 1530
1488 1495 1496 1480 1469 1468 1471 1481 1478 1479 1480 1482 1483 1486 1491 1493 1494 1496 1498 1499 1499 1500 1501 1502 1504 1506 1508 1510 1512 1514 1516 1517 1519 1521 1522 1523 1524 1525 1525 1526 1527 1527 1527 1528
1490 1492 1486 1475 1471 1471 1485 1488 1482 1482 1484 1485 1487 1490 1493 1493 1494 1496 1497 1498 1498 1499 1500 1501 1502 1504 1505 1508 1509 1511 1513 1515 1516 1518 1519 1521 1522 1522 1523 1523 1524 1525 1525 1525
1488 1494 1492 1477 1476 1481 1485 1483 1484 1485 1486 1488 1489 1491 1492 1493 1494 1495 1496 1496 1497 1498 1499 1500 1501 1502 1503 1505 1507 1509 1510 1512 1513 1514 1516 1518 1519 1519 1520 1521 1522 1522 1523 1523
1483 1487 1483 1482 1483 1484 1485 1485 1486 1487 1488 1489 1490 1491 1492 1493 1494 1494 1495 1496 1496 1497 1498 1498 1499 1500 1501 1502 1504 1506 1508 1509 1510 1512 1513 1514 1515 1516 1517 1518 1519 1519 1520 1520
1482 1482 1484 1484 1485 1486 1486 1485 1486 1487 1488 1489 1490 1490 1491 1492 1493 1493 1494 1494 1495 1495 1496 1497 1498 1499 1499 1500 1501 1503 1505 1506 1507 1509 1510 1511 1512 1513 1514 1515 1516 1516 1517 1518
1482 1484 1484 1485 1487 1487 1486 1486 1486 1487 1488 1489 1489 1490 1490 1491 1491 1492 1492 1492 1493 1493 1494 1495 1495 1496 1497 1498 1499 1501 1503 1504 1505 1506 1507 1508 1509 1510 1511 1512 1512 1513 1515 1515
1486 1487 1487 1486 1487 1488 1488 1487 1487 1487 1487 1488 1488 1489 1489 1489 1489 1489 1490 1490 1491 1491 1492 1493 1493 1494 1495 1496 1497 1499 1500 1501 1502 1504 1505 1505 1506 1507 1507 1508 1508 1510 1512 1513
1489 1489 1488 1487 1487 1487 1486 1486 1486 1486 1486 1486 1486 1487 1487 1487 1487 1487 1487 1488 1488 1489 1490 1491 1491 1492 1493 1494 1495 1496 1497 1498 1500 1501 1502 1503 1503 1504 1504 1505 1506 1506 1508 1509
1491 1490 1487 1487 1487 1486 1485 1484 1484 1485 1485 1485 1484 1485 1485 1485 1485 1485 1486 1486 1487 1487 1488 1488 1489 1490 1491 1492 1493 1493 1494 1495 1497 1499 1500 1500 1501 1502 1501 1502 1503 1503 1504 1505
1491 1490 1489 1488 1487 1486 1484 1484 1484 1483 1483 1483 1482 1482 1483 1483 1483 1483 1484 1485 1485 1486 1486 1487 1488 1489 1489 1490 1491 1492 1492 1493 1494 1496 1497 1498 1499 1500 1499 1500 1500 1500 1500 1501
1490 1489 1488 1487 1486 1484 1483 1483 1483 1482 1481 1480 1480 1480 1481 1481 1481 1481 1482 1483 1483 1484 1485 1485 1486 1487 1488 1488 1489 1490 1491 1492 1493 1494 1495 1496 1497 1497 1498 1498 1498 1498 1497 1497
1489 1488 1486 1485 1484 1482 1481 1481 1481 1480 1479 1478 1478 1478 1479 1479 1479 1480 1481 1481 1482 1483 1483 1484 1484 1485 1486 1487 1488 1488 1489 1490 1491 1492 1493 1494 1494 1495 1495 1495 1495 1495 1495 1495
1487 1486 1485 1484 1482 1480 1480 1479 1479 1478 1477 1476 1476 1476 1477 1477 1478 1478 1479 1480 1481 1482 1482 1482 1483 1483 1484 1485 1486 1487 1488 1488 1489 1490 1491 1491 1492 1492 1493 1493 1493 1493 1493 1493
1484 1484 1483 1481 1480 1480 1479 1478 1477 1477 1476 1476 1476 1476 1476 1476 1477 1477 1478 1478 1479 1480 1480 1481 1481 1482 1483 1483 1484 1485 1486 1486 1487 1488 1489 1489 1489 1490 1490 1490 1491 1491 1490 1490
1482 1482 1480 1479 1478 1478 1476 1476 1476 1476 1476 1476 1475 1475 1475 1475 1476 1477 1477 1477 1477 1478 1478 1479 1480 1481 1482 1482 1483 1484 1485 1485 1485 1486 1487 1487 1487 1487 1488 1488 1488 1488 1487 1487
1480 1479 1478 1477 1477 1476 1475 1475 1475 1475 1475 1475 1475 1475 1475 1475 1476 1476 1476 1476 1476 1476 1477 1477 1478 1479 1480 1481 1481 1482 1483 1483 1483 1484 1484 1484 1484 1485 1485 1484 1484 1484 1484 1483
1479 1477 1476 1476 1476 1475 1475 1474 1474 1473 1473 1473 1473 1473 1473 1474 1474 1474 1475 1475 1475 1475 1475 1476 1477 1478 1478 1479 1480 1480 1481 1481 1481 1482 1482 1482 1482 1481 1481 1481 1481 1480 1480 1480
1476 1475 1475 1475 1475 1474 1474 1473 1473 1472 1472 1472 1471 1471 1471 1472 1473 1473 1473 1473 1473 1473 1474 1475 1475 1476 1477 1477 1478 1478 1478 1479 1479 1479 1479 1479 1479 1478 1478 1478 1477 1477 1476 1476
1475 1474 1474 1474 1473 1473 1472 1471 1471 1471 1470 1470 1469 1469 1469 1470 1471 1472 1472 1472 1471 1471 1473 1473 1474 1475 1475 1476 1476 1476 1476 1476 1476 1476 1476 1476 1475 1475 1475 1474 1474 1473 1473 1472
1474 1473 1473 1472 1472 1471 1470 1469 1469 1469 1469 1469 1468 1468 1468 1469 1469 1470 1471 1471 1470 1470 1471 1472 1472 1473 1473 1474 1474 1474 1474 1474 1473 1473 1473 1473 1472 1472 1471 1471 1470 1470 1469 1468
1473 1472 1472 1471 1470 1469 1469 1468 1467 1467 1468 1468 1467 1468 1468 1468 1469 1469 1469 1469 1469 1469 1470 1470 1471 1471 1471 1472 1472 1472 1471 1471 1470 1470 1470 1469 1469 1468 1467 1467 1466 1466 1465 1464
1472 1471 1471 1470 1469 1468 1467 1466 1466 1466 1466 1466 1467 1467 1467 1468 1468 1468 1468 1468 1468 1468 1469 1469 1470 1470 1470 1470 1470 1470 1469 1468 1468 1467 1466 1466 1465 1465 1464 1463 1463 1462 1462 1462